KG1ZR Weather Reports


Display with metric or nautical units.
time (UTC)temp
F
wind
direction
speed
MPH
gust
MPH
rain 1hr
in
rain 24hr
in
rain mn
in
humidity
%
barometer
mb
20260903142813 62 200 2.0 6.0 0.00 0.53 0.53 50 1014.9
20260903141814 62 157 2.0 4.0 0.00 0.53 0.53 50 1014.9
20260903140813 62 215 1.0 5.0 0.00 0.53 0.53 51 1014.9
20260903135803 61 185 1.0 6.0 0.00 0.53 0.53 51 1015.0
20260903134804 61 115 2.0 6.0 0.00 0.53 0.53 51 1015.0
20260903133804 61 248 2.0 5.0 0.00 0.53 0.53 51 1015.0
20260903132804 61 157 2.0 5.0 0.00 0.53 0.53 51 1015.0
20260903131803 60 198 2.0 5.0 0.00 0.53 0.53 51 1015.2
20260903130803 60 270 1.0 3.0 0.02 0.53 0.53 51 1015.3
20260903125803 60 182 0.0 2.0 0.04 0.53 0.53 51 1015.4
20260903124804 60 234 1.0 4.0 0.07 0.53 0.53 51 1015.3
20260903123801 60 186 2.0 7.0 0.09 0.53 0.53 52 1015.4
20260903122801 60 179 2.0 7.0 0.13 0.53 0.53 52 1015.4
20260903121801 60 140 2.0 7.0 0.18 0.53 0.53 52 1015.5
20260903120801 60 148 2.0 8.0 0.19 0.51 0.51 52 1015.7
20260903115801 60 190 3.0 8.0 0.18 0.49 0.48 52 1015.7
20260903114800 60 279 1.0 6.0 0.15 0.46 0.46 52 1015.6
20260903113800 60 116 0.0 3.0 0.13 0.44 0.43 52 1015.7
20260903112801 60 227 1.0 5.0 0.11 0.40 0.40 52 1015.6
20260903111801 60 192 1.0 5.0 0.09 0.35 0.34 52 1015.9
20260903110800 60 277 0.0 3.0 0.09 0.32 0.32 52 1015.9
20260903105801 60 175 1.0 13.0 0.12 0.31 0.31 52 1015.7
20260903104801 60 239 3.0 13.0 0.15 0.31 0.31 52 1015.7
20260903103800 61 182 3.0 7.0 0.17 0.31 0.30 51 1015.8
20260903102801 61 197 2.0 7.0 0.17 0.29 0.28 51 1015.5
20260903101801 61 237 3.0 7.0 0.16 0.26 0.26 52 1015.6
20260903101242 61 129 2.0 8.0 0.13 0.23 0.23 52 1015.5
20260903095801 61 153 1.0 5.0 0.10 0.19 0.18 52 1015.6
20260903094801 61 213 1.0 5.0 0.07 0.16 0.16 52 1015.6
20260903093800 61 196 2.0 6.0 0.05 0.14 0.14 52 1015.7
20260903092801 61 187 1.0 4.0 0.04 0.12 0.12 52 1016.1
20260903091801 61 108 1.0 5.0 0.02 0.10 0.10 52 1016.1
20260903090801 61 184 2.0 5.0 0.02 0.10 0.10 53 1016.2
20260903090254 60 200 1.0 4.0 0.01 0.09 0.09 53 1016.1
20260903084801 60 217 1.0 3.0 0.01 0.09 0.09 53 1015.9
20260903084243 60 192 1.0 3.0 0.05 0.09 0.08 53 1015.8
20260903083236 60 123 0.0 3.0 0.06 0.08 0.08 53 1015.9
20260903081801 60 132 0.0 8.0 0.06 0.08 0.08 54 1016.0
20260903080803 60 173 2.0 8.0 0.07 0.08 0.08 54 1016.1
20260903075758 60 187 1.0 7.0 0.07 0.08 0.08 54 1016.2
20260903074757 60 124 2.0 7.0 0.07 0.08 0.07 54 1016.5
20260903073756 60 173 2.0 5.0 0.04 0.04 0.04 54 1016.9
20260903072755 60 195 1.0 6.0 0.02 0.02 0.02 55 1017.0
20260903071755 60 170 2.0 6.0 0.02 0.02 0.02 55 1017.0
20260903070755 60 190 2.0 5.0 0.01 0.01 0.01 55 1017.0
20260903065755 61 176 1.0 4.0 0.01 0.01 0.01 55 1017.1
20260903064755 61 203 1.0 5.0 0.01 0.01 0.01 56 1017.2
20260903063752 61 140 1.0 5.0 0.00 0.00 0.00 56 1017.2
20260903062750 61 184 1.0 4.0 0.00 0.00 0.00 57 1017.4
20260903061747 60 213 2.0 4.0 0.00 0.00 0.00 57 1017.6
20260903061223 60 192 1.0 4.0 0.00 0.00 0.00 58 1017.7
20260903055744 60 217 1.0 4.0 0.00 0.00 0.00 58 1017.8
20260903054740 60 163 1.0 4.0 0.00 0.00 0.00 59 1017.9
20260903053738 60 205 2.0 3.0 0.00 0.00 0.00 60 1018.0
20260903052737 60 201 1.0 5.0 0.00 0.00 0.00 60 1018.1
20260903052205 60 178 2.0 5.0 0.00 0.00 0.00 61 1018.1
20260903050732 60 161 1.0 4.0 0.00 0.00 0.00 61 1018.0
20260903045731 60 104 1.0 5.0 0.00 0.00 0.00 61 1018.0
20260903044732 60 103 2.0 5.0 0.00 0.00 0.00 62 1018.2
20260903043732 60 169 0.0 2.0 0.00 0.00 0.00 62 1018.7
20260903043331 60 182 1.0 4.0 0.00 0.00 0.00 62 1018.9
20260903040731 60 228 2.0 5.0 0.00 0.00 0.00 63 1019.0
20260903035729 60 280 2.0 4.0 0.00 0.00 0.00 64 1018.9
20260903035204 60 121 1.0 4.0 0.00 0.00 0.00 64 1018.8
20260903033729 60 210 1.0 4.0 0.00 0.00 0.00 65 1018.8
20260903032729 60 211 1.0 6.0 0.00 0.00 0.00 65 1019.0
20260903032205 60 198 1.0 6.0 0.00 0.00 0.00 66 1019.2
20260903030729 60 200 1.0 6.0 0.00 0.00 0.00 66 1019.2
20260903025729 60 121 1.0 5.0 0.00 0.00 0.00 67 1019.2
20260903025203 60 203 1.0 5.0 0.00 0.00 0.00 67 1019.4
20260903024641 60 198 1.0 6.0 0.00 0.00 0.00 68 1019.6
20260903022728 60 164 1.0 6.0 0.00 0.00 0.00 69 1019.6
20260903021729 60 168 2.0 5.0 0.00 0.00 0.00 69 1019.7
20260903020729 60 175 1.0 5.0 0.00 0.00 0.00 70 1019.7
20260903020210 60 101 2.0 6.0 0.00 0.00 0.00 71 1019.8
20260903014730 60 61 2.0 6.0 0.00 0.00 0.00 71 1019.5
20260903013729 60 236 2.0 6.0 0.00 0.00 0.00 72 1019.5
20260903012729 61 150 2.0 7.0 0.00 0.00 0.00 73 1019.5
20260903011729 61 109 2.0 7.0 0.00 0.00 0.00 74 1019.3
20260903011645 62 179 1.0 5.0 0.00 0.00 0.00 75 1019.4
20260903005728 62 133 2.0 9.0 0.00 0.00 0.00 75 1019.1
20260903004730 63 136 3.0 9.0 0.00 0.00 0.00 76 1019.2
20260903003729 63 126 3.0 7.0 0.00 0.00 0.00 76 1019.2
20260903003203 64 138 2.0 6.0 0.00 0.00 0.00 75 1019.3
20260903001729 64 194 3.0 8.0 0.00 0.00 0.00 75 1019.5
20260903001212 64 184 2.0 7.0 0.00 0.00 0.00 75 1019.6
20260902235729 64 163 3.0 7.0 0.00 0.00 0.00 75 1019.4
20260902234728 65 5 2.0 7.0 0.00 0.00 0.00 74 1019.6
20260902233728 65 135 1.0 8.0 0.00 0.00 0.00 74 1019.6
20260902232728 65 213 2.0 8.0 0.00 0.00 0.00 74 1019.7
20260902231727 65 216 2.0 7.0 0.00 0.00 0.00 73 1019.8
20260902230728 66 199 2.0 7.0 0.00 0.00 0.00 73 1019.7
20260902225728 66 157 3.0 7.0 0.00 0.00 0.00 72 1019.7
20260902224729 67 188 2.0 6.0 0.00 0.00 0.00 72 1020.0
20260902223728 67 165 2.0 6.0 0.00 0.00 0.00 71 1020.0
20260902222728 67 198 3.0 7.0 0.00 0.00 0.00 71 1020.1
20260902221722 67 155 3.0 7.0 0.00 0.00 0.00 70 1020.2
20260902220722 68 171 2.0 6.0 0.00 0.00 0.00 70 1020.1
20260902215722 68 145 3.0 8.0 0.00 0.00 0.00 69 1019.9
20260902214722 68 159 3.0 8.0 0.00 0.00 0.00 69 1020.0
20260902213722 69 99 2.0 6.0 0.00 0.00 0.00 69 1020.1
20260902212722 69 169 2.0 7.0 0.00 0.00 0.00 69 1020.2
20260902211722 69 106 3.0 8.0 0.00 0.00 0.00 68 1020.1
20260902210723 69 211 3.0 8.0 0.00 0.00 0.00 68 1020.4
20260902205722 69 100 3.0 8.0 0.00 0.00 0.00 69 1020.4
20260902204721 69 144 3.0 7.0 0.00 0.00 0.00 68 1020.4
20260902203720 69 107 4.0 9.0 0.00 0.00 0.00 69 1020.4
20260902202720 70 78 4.0 9.0 0.00 0.00 0.00 68 1020.3
20260902201720 70 112 3.0 8.0 0.00 0.00 0.00 67 1020.4
20260902200720 70 206 3.0 9.0 0.00 0.00 0.00 67 1020.5
20260902195859 70 145 3.0 9.0 0.00 0.00 0.00 66 1020.7
20260902194154 70 229 3.0 6.0 0.00 0.00 0.00 66 1020.8
20260902192718 70 103 2.0 7.0 0.00 0.00 0.00 66 1020.9
20260902191718 71 121 2.0 7.0 0.00 0.00 0.00 63 1020.9
20260902190718 71 188 2.0 5.0 0.00 0.00 0.00 62 1021.0
20260902185718 71 147 2.0 6.0 0.00 0.00 0.00 64 1021.1
20260902184718 71 125 3.0 7.0 0.00 0.00 0.00 61 1021.0
20260902183718 71 190 2.0 6.0 0.00 0.00 0.00 62 1020.9
20260902182718 71 103 2.0 6.0 0.00 0.00 0.00 59 1020.9
20260902181718 72 138 2.0 6.0 0.00 0.00 0.00 61 1020.8
20260902180718 72 93 1.0 6.0 0.00 0.00 0.00 62 1020.8
20260902180145 72 159 2.0 7.0 0.00 0.00 0.00 60 1020.8
20260902175150 72 52 2.0 7.0 0.00 0.00 0.00 62 1021.0
20260902173712 72 182 3.0 7.0 0.00 0.00 0.00 57 1021.0
20260902172711 73 199 2.0 6.0 0.00 0.00 0.00 59 1020.9
20260902171712 73 107 2.0 6.0 0.00 0.00 0.00 58 1020.9
20260902171151 73 54 3.0 6.0 0.00 0.00 0.00 54 1021.2
20260902170629 72 111 4.0 7.0 0.00 0.00 0.00 56 1021.4
20260902164712 73 127 5.0 8.0 0.00 0.00 0.00 56 1021.4
20260902163712 73 242 3.0 8.0 0.00 0.00 0.00 58 1021.5
20260902162707 72 105 4.0 6.0 0.00 0.00 0.00 62 1021.5
20260902161706 71 98 3.0 10.0 0.00 0.00 0.00 64 1021.6
20260902160706 71 76 5.0 10.0 0.00 0.00 0.00 62 1021.8
20260902155706 71 125 3.0 9.0 0.00 0.00 0.00 60 1021.9
20260902154706 71 69 4.0 9.0 0.00 0.00 0.00 61 1021.8
20260902154152 71 139 5.0 11.0 0.00 0.00 0.00 62 1021.9
20260902153149 71 80 4.0 11.0 0.00 0.00 0.00 64 1021.9
20260902151706 71 63 3.0 11.0 0.00 0.00 0.00 65 1021.9
20260902150706 70 70 3.0 10.0 0.00 0.00 0.00 68 1022.0
20260902145704 70 69 3.0 7.0 0.00 0.00 0.00 68 1022.0
20260902144704 69 217 4.0 8.0 0.00 0.00 0.00 68 1022.0